Location: Bonny Doon Airfield
(37.0704°N, 122.1252°W)
Time: 20:40:24
(UTC-08:00)

BREEZE M DEB (TANK) - Visible Passes

Search period start: 18 January 2017 00:00
Search period end: 28 January 2017 00:00
Orbit: 316 x 13719 km, 49.6° (Epoch: 17 January)

Date Brightness Start Highest point End Pass type
(mag) Time Alt. Az. Time Alt. Az. Time Alt. Az.
18 Jan 8.9 03:01:31 10° NW 04:13:55 69° WSW 05:50:33 10° S visible
18 Jan 6.5 19:43:28 10° SW 19:53:35 88° NW 20:58:58 10° ENE visible
19 Jan 8.5 00:14:44 10° WNW 01:00:18 77° NNE 03:03:48 10° SE visible
19 Jan 9.1 04:57:25 10° NW 06:04:56 40° W 07:28:23 10° SSW visible
19 Jan 6.7 17:07:40 10° SSE 17:14:43 27° E 17:35:16 10° NE visible
19 Jan 7.6 21:31:05 10° W 21:48:44 67° N 23:42:45 10° E visible
20 Jan 8.8 02:06:07 10° NW 03:13:16 79° WSW 04:57:05 10° SSE visible
20 Jan 9.4 07:10:24 10° WNW 07:45:03 15° WNW 08:26:30 10° W visible
20 Jan 6.2 18:50:57 10° SW 18:59:30 76° SE 19:48:38 10° NE visible
20 Jan 8.4 23:20:29 10° WNW 23:55:22 71° NNE 02:04:01 10° SE visible
21 Jan 9.0 03:59:57 10° NW 05:09:44 50° W 06:39:42 10° SSW visible
21 Jan 7.2 20:37:44 10° WSW 20:51:27 70° NNW 22:26:17 10° E visible
22 Jan 8.7 01:11:10 10° WNW 02:10:21 89° SW 04:02:15 10° SSE visible
22 Jan 9.3 06:02:10 10° NW 06:53:44 23° W 07:59:53 10° WSW visible
22 Jan 6.1 17:58:48 10° SSW 18:06:20 57° ESE 18:42:37 10° NE visible
22 Jan 8.2 22:26:29 10° WNW 22:52:50 67° N 01:00:49 10° ESE visible
23 Jan 8.9 03:03:35 10° NW 04:12:41 61° WSW 05:48:48 10° S visible
23 Jan 6.8 19:44:37 10° WSW 19:55:32 77° NNW 21:08:42 10° ENE visible
24 Jan 8.6 00:16:33 10° WNW 01:05:46 82° NE 03:05:48 10° SE visible
24 Jan 9.2 05:00:57 10° NW 06:00:58 33° W 07:20:21 10° SW visible
24 Jan 6.3 17:07:07 10° S 17:14:01 38° ESE 17:39:31 10° NE visible
24 Jan 7.9 21:32:42 10° W 21:52:44 65° N 23:52:46 10° ESE visible
25 Jan 8.8 02:07:56 10° NW 03:13:37 71° WSW 04:56:15 10° S visible
25 Jan 6.3 18:51:46 10° SW 19:00:41 88° NW 19:55:24 10° ENE visible
25 Jan 8.5 23:22:12 10° WNW 00:01:05 75° NNE 02:07:20 10° SE visible
26 Jan 9.1 04:02:30 10° NW 05:06:39 42° W 06:34:41 10° SSW visible
26 Jan 7.5 20:39:07 10° W 20:54:32 66° N 22:38:34 10° E visible
27 Jan 8.8 01:12:49 10° NW 02:12:29 81° WSW 04:02:14 10° SSE visible
27 Jan 9.4 06:11:06 10° WNW 06:48:48 16° W 07:36:42 10° WSW visible
27 Jan 6.0 17:59:12 10° SW 18:06:45 74° SE 18:47:24 10° NE visible
